[[{"header":{"parameterUnit":"m.s-1","parameterCategory":1,"la1":30.2991,"la2":30.254,"lo1":-89.0895,"lo2":-89.0444,"dy":0.0017,"dx":0.0017,"nx":28,"ny":28,"refTime":"2025-07-03T09:00:00:Z","depth":0,"parameterNumber":2,"parameterNumberName":"U-component_of_WINDS"},"data":[0,0,0,0,0,0,0,0,0,0,0,0,0,0,0,0,0,0,0,0,0,0,0,0,0,0,0,0,0,0,0,0,0,0,0,0,0,0,0,0,0,0,0,0,0,0,0,0,0,0,0,0,0,0,0,0,0,0,-0.0758,-0.0758,0,-0.0735,-0.0734,-0.0734,-0.0665,-0.0664,-0.0662,-0.0661,-0.064,-0.0641,-0.0641,0,0,0,0,0,0,0,0,0,0,0,0,0,-0.0747,-0.0748,-0.0759,-0.0758,-0.0758,-0.0735,-0.0734,-0.0734,-0.0666,-0.0664,-0.0662,-0.066,-0.064,-0.0641,-0.0642,0,0,0,0,0,0,0,0,0,0,0,0,0,-0.0741,-0.0748,-0.0759,-0.0721,-0.0717,-0.0735,-0.0734,-0.0734,-0.0666,-0.0664,-0.0661,-0.0659,-0.0639,-0.064,-0.0642,-0.0695,0,0,-0.0646,-0.0646,0,0,0,0,0,0,0,0,-0.0741,-0.0741,-0.0727,-0.0723,-0.0719,-0.0701,-0.0723,-0.0721,-0.0667,-0.0686,-0.0661,-0.0658,-0.0662,-0.0661,-0.0662,-0.0694,-0.0693,-0.0646,-0.0646,-0.0647,-0.0647,0,0,0,0,0,0,0,-0.0742,-0.0742,-0.0749,-0.0727,-0.0722,-0.0706,-0.0702,-0.0722,-0.0687,-0.0684,-0.0679,-0.0677,-0.066,-0.0661,-0.0661,-0.0693,-0.0646,-0.0647,-0.0648,-0.0648,-0.0767,-0.0769,0,0,0,0,0,0,-0.0747,-0.0743,-0.075,-0.0748,-0.0725,-0.0708,-0.0704,-0.0709,-0.0686,-0.0681,-0.0679,-0.0673,-0.066,-0.066,-0.066,-0.0721,-0.0647,-0.0648,-0.0649,-0.0765,-0.0768,-0.077,0,0,0,0,0,0,-0.0747,-0.0748,-0.0751,-0.0744,-0.0743,-0.071,-0.0717,-0.071,-0.0711,-0.0683,-0.0676,-0.0686,-0.0658,-0.0658,-0.0687,-0.072,-0.0649,-0.065,-0.0762,-0.0766,-0.0769,-0.0845,0,0,0,0,0,0,-0.0747,-0.0749,-0.0768,-0.0745,-0.0744,-0.0778,-0.0719,-0.0711,-0.0713,-0.0706,-0.0688,-0.0683,-0.0656,-0.0685,-0.0688,-0.072,-0.0651,-0.0759,-0.0764,-0.0768,-0.0839,-0.085,-0.086,0,0,0,0,0,-0.0747,-0.0791,-0.077,-0.0771,-0.0767,-0.078,-0.0779,-0.0747,-0.0716,-0.0736,-0.0717,-0.0683,-0.0715,-0.0688,-0.0691,-0.0724,-0.0757,-0.0762,-0.0768,-0.0834,-0.0848,-0.086,0,0,0,0,0,0,-0.0821,-0.0788,-0.0763,-0.0801,-0.0794,-0.0768,-0.0792,-0.0762,-0.0764,-0.0758,-0.0718,-0.0715,-0.0749,-0.0739,-0.071,-0.0775,-0.073,-0.0737,-0.078,-0.0793,-0.0803,-0.0806,-0.0652,0,0,0,0,0,-0.0841,-0.0853,-0.0823,-0.086,-0.0857,-0.0825,-0.0829,-0.0805,-0.0796,-0.0793,-0.0776,-0.077,-0.0778,-0.0785,-0.0791,-0.0836,-0.0832,-0.086,-0.0871,-0.0879,-0.0886,-0.091,-0.0923,-0.0788,-0.0788,-0.0788,0,0,-0.0884,-0.0867,-0.0878,-0.0874,-0.0865,-0.088,-0.0823,-0.084,-0.0851,-0.0795,-0.0821,-0.0809,-0.0799,-0.0836,-0.0852,-0.0829,-0.0922,-0.0886,-0.0894,-0.0895,-0.0917,-0.093,-0.0941,-0.0792,-0.0791,-0.079,0,0,-0.097,-0.0958,-0.0987,-0.0979,-0.0966,-0.0944,-0.0951,-0.0929,-0.0919,-0.0944,-0.0902,-0.0914,-0.0929,-0.0924,-0.0923,-0.1005,-0.0975,-0.1008,-0.1064,-0.1088,-0.1098,-0.1108,-0.1138,-0.1149,-0.1014,-0.1014,-0.1015,0,-0.1026,-0.1044,-0.1006,-0.1026,-0.1026,-0.0975,-0.1004,-0.0999,-0.0989,-0.0991,-0.0964,-0.0982,-0.0971,-0.1007,-0.1027,-0.1028,-0.1035,-0.1011,-0.11,-0.1108,-0.1117,-0.1145,-0.1157,-0.1019,-0.1018,-0.1018,-0.1017,0,-0.1114,-0.1127,-0.1153,-0.1143,-0.1145,-0.117,-0.1137,-0.1144,-0.1119,-0.11,-0.1126,-0.1111,-0.1113,-0.1119,-0.1095,-0.1152,-0.1138,-0.1106,-0.1062,-0.1134,-0.1161,-0.1171,-0.1025,-0.1023,-0.1022,-0.1021,0,0,-0.1248,-0.1216,-0.1226,-0.1221,-0.1202,-0.1212,-0.1234,-0.1235,-0.1242,-0.1237,-0.1255,-0.1268,-0.1238,-0.1238,-0.1212,-0.1233,-0.13,-0.1198,-0.1197,-0.1219,-0.1362,-0.1388,-0.1401,-0.1278,-0.128,-0.1282,-0.1364,0,-0.1331,-0.1366,-0.1332,-0.1375,-0.1387,-0.1338,-0.1357,-0.1348,-0.1331,-0.1339,-0.132,-0.133,-0.1289,-0.1289,-0.1307,-0.1288,-0.1329,-0.1281,-0.1297,-0.1298,-0.1303,-0.1414,-0.1441,-0.1519,-0.1373,-0.1375,-0.1376,0,-0.1432,-0.143,-0.1474,-0.1451,-0.1455,-0.1473,-0.1471,-0.1479,-0.1468,-0.1453,-0.1452,-0.142,-0.1441,-0.1395,-0.1424,-0.1393,-0.1397,-0.1389,-0.1391,-0.1393,-0.1343,-0.1421,-0.1543,-0.1556,-0.1392,-0.1391,-0.139,0,-0.1528,-0.1535,-0.1563,-0.1559,-0.1533,-0.1547,-0.1537,-0.1523,-0.1526,-0.1524,-0.1525,-0.1526,-0.1528,-0.1529,-0.1499,-0.1468,-0.1532,-0.1484,-0.1522,-0.1523,-0.154,-0.154,-0.1666,-0.1539,-0.1539,-0.1539,-0.1539,0,-0.1624,-0.1654,-0.1605,-0.1622,-0.1653,-0.1613,-0.1646,-0.163,-0.1618,-0.1632,-0.1589,-0.1603,-0.1561,-0.1571,-0.1547,-0.1575,-0.1575,-0.1565,-0.1559,-0.1571,-0.1572,-0.1574,-0.1569,-0.1542,-0.1541,-0.1541,-0.154,0,-0.1738,-0.1706,-0.1732,-0.1705,-0.1698,-0.1723,-0.17,-0.1715,-0.1693,-0.1711,-0.1713,-0.1681,-0.169,-0.1659,-0.1663,-0.1647,-0.1689,-0.1673,-0.1693,-0.1689,-0.1729,-0.1727,-0.1863,-0.188,-0.1741,-0.1742,-0.1743,0,-0.1803,-0.1824,-0.1798,-0.1803,-0.1795,-0.1805,-0.1806,-0.1767,-0.1771,-0.1759,-0.1776,-0.1781,-0.1783,-0.18,-0.1778,-0.1781,-0.1766,-0.1813,-0.1766,-0.1777,-0.1768,-0.1768,-0.177,-0.1824,-0.1826,-0.1827,-0.1828,0,-0.1922,-0.1904,-0.1908,-0.1907,-0.191,-0.1907,-0.1901,-0.1909,-0.1866,-0.1873,-0.1881,-0.1883,-0.1886,-0.1893,-0.1891,-0.1881,-0.1849,-0.1843,-0.1852,-0.1865,-0.1876,-0.1872,-0.1722,-0.184,-0.1839,-0.1838,-0.1838,-0.1837,-0.2014,-0.203,-0.2014,-0.202,-0.2011,-0.2006,-0.2019,-0.1999,-0.2004,-0.2004,-0.198,-0.1993,-0.198,-0.1974,-0.1967,-0.1977,-0.1955,-0.1969,-0.1972,-0.1977,-0.1984,-0.1873,-0.1977,-0.1976,-0.1976,-0.1976,-0.1975,0,-0.2132,-0.2119,-0.2124,-0.2117,-0.2121,-0.2087,-0.2079,-0.2086,-0.2097,-0.2087,-0.209,-0.2099,-0.2105,-0.2082,-0.2084,-0.2096,-0.2082,-0.2099,-0.2098,-0.2097,-0.2003,-0.1996,-0.2111,-0.2111,-0.2111,-0.2111,-0.2111,-0.2111,-0.2194,-0.222,-0.2201,-0.2223,-0.2209,-0.2221,-0.2219,-0.2214,-0.2206,-0.2218,-0.2222,-0.2206,-0.2191,-0.2192,-0.2195,-0.2188,-0.2192,-0.2215,-0.2203,-0.2117,-0.2103,-0.2091,-0.2084,-0.2215,-0.2216,-0.2296,-0.2297,-0.2297]},{"header":{"parameterUnit":"m.s-1","parameterCategory":1,"la1":30.2991,"la2":30.254,"lo1":-89.0895,"lo2":-89.0444,"dy":0.0017,"dx":0.0017,"nx":28,"ny":28,"refTime":"2025-07-03T09:00:00:Z","depth":0,"parameterNumber":3,"parameterNumberName":"V-component_of_WINDS"},"data":[0,0,0,0,0,0,0,0,0,0,0,0,0,0,0,0,0,0,0,0,0,0,0,0,0,0,0,0,0,0,0,0,0,0,0,0,0,0,0,0,0,0,0,0,0,0,0,0,0,0,0,0,0,0,0,0,0,0,-2.7609,-2.761,0,-2.7667,-2.7668,-2.7668,-2.764,-2.7638,-2.7637,-2.7635,-2.7692,-2.7695,-2.7698,0,0,0,0,0,0,0,0,0,0,0,0,0,-2.7473,-2.7476,-2.7609,-2.761,-2.7611,-2.7667,-2.7668,-2.7668,-2.764,-2.7638,-2.7636,-2.7635,-2.7691,-2.7695,-2.7698,0,0,0,0,0,0,0,0,0,0,0,0,0,-2.7531,-2.7476,-2.7609,-2.7603,-2.7603,-2.7667,-2.7668,-2.7669,-2.764,-2.7638,-2.7636,-2.7634,-2.769,-2.7694,-2.7699,-2.777,0,0,-2.7712,-2.7714,0,0,0,0,0,0,0,0,-2.7528,-2.7536,-2.7603,-2.7604,-2.7604,-2.7644,-2.764,-2.7703,-2.7641,-2.7626,-2.7635,-2.7633,-2.7678,-2.7683,-2.7699,-2.7773,-2.7775,-2.7712,-2.7715,-2.7717,-2.7718,0,0,0,0,0,0,0,-2.7524,-2.7534,-2.7632,-2.7604,-2.7605,-2.7597,-2.7603,-2.7652,-2.7664,-2.7627,-2.7625,-2.7633,-2.7677,-2.7695,-2.77,-2.7776,-2.7712,-2.7716,-2.7719,-2.772,-2.7911,-2.7914,0,0,0,0,0,0,-2.7521,-2.7531,-2.763,-2.7634,-2.756,-2.7602,-2.7608,-2.7633,-2.7663,-2.7666,-2.7635,-2.7631,-2.7688,-2.7695,-2.7702,-2.7787,-2.7717,-2.7721,-2.7723,-2.7909,-2.7912,-2.7915,0,0,0,0,0,0,-2.7518,-2.753,-2.7628,-2.7582,-2.7594,-2.7606,-2.7635,-2.7636,-2.7653,-2.7669,-2.767,-2.765,-2.7687,-2.7696,-2.7753,-2.7789,-2.7723,-2.7727,-2.7906,-2.791,-2.7913,-2.7959,0,0,0,0,0,0,-2.7514,-2.7529,-2.7557,-2.7583,-2.7596,-2.7679,-2.7637,-2.7638,-2.766,-2.7657,-2.7684,-2.7686,-2.7686,-2.7747,-2.7758,-2.7793,-2.773,-2.7903,-2.7908,-2.7912,-2.7954,-2.7963,-2.7971,0,0,0,0,0,-2.7509,-2.7567,-2.7558,-2.757,-2.7631,-2.7681,-2.7689,-2.7688,-2.7663,-2.7691,-2.7701,-2.7685,-2.7783,-2.7753,-2.7765,-2.7802,-2.7901,-2.7906,-2.7912,-2.795,-2.7961,-2.7971,0,0,0,0,0,0,-2.7544,-2.757,-2.7561,-2.7629,-2.7653,-2.7677,-2.7711,-2.7701,-2.7732,-2.7727,-2.7724,-2.773,-2.779,-2.7802,-2.7768,-2.7873,-2.7838,-2.7846,-2.7863,-2.7874,-2.7883,-2.7878,-2.7734,0,0,0,0,0,-2.756,-2.7599,-2.7619,-2.7677,-2.769,-2.7699,-2.772,-2.7718,-2.7743,-2.7753,-2.7767,-2.7792,-2.7828,-2.7852,-2.7886,-2.7956,-2.7961,-2.7987,-2.7996,-2.8003,-2.801,-2.8047,-2.8059,-2.7933,-2.7933,-2.7933,0,0,-2.7592,-2.7611,-2.7636,-2.7684,-2.7703,-2.7743,-2.7708,-2.7751,-2.7781,-2.7759,-2.7815,-2.7826,-2.7853,-2.7917,-2.7946,-2.7929,-2.8046,-2.801,-2.8016,-2.8019,-2.8054,-2.8066,-2.8077,-2.7937,-2.7936,-2.7935,0,0,-2.7671,-2.769,-2.774,-2.776,-2.7789,-2.7794,-2.7807,-2.7832,-2.7839,-2.7895,-2.7879,-2.7914,-2.7977,-2.7997,-2.8015,-2.8102,-2.8088,-2.8113,-2.8158,-2.8195,-2.8205,-2.8213,-2.8244,-2.8255,-2.812,-2.812,-2.812,0,-2.7708,-2.7768,-2.7767,-2.7812,-2.7834,-2.7817,-2.7867,-2.7886,-2.7925,-2.794,-2.792,-2.7998,-2.8015,-2.8084,-2.8105,-2.8121,-2.8134,-2.811,-2.8204,-2.8212,-2.822,-2.8249,-2.8261,-2.8123,-2.8123,-2.8123,-2.8122,0,-2.7811,-2.7853,-2.789,-2.7928,-2.7954,-2.8002,-2.8007,-2.8033,-2.8029,-2.8036,-2.8093,-2.8113,-2.8151,-2.8167,-2.8162,-2.8235,-2.8223,-2.8204,-2.8168,-2.8235,-2.8262,-2.8274,-2.8127,-2.8126,-2.8125,-2.8125,0,0,-2.7913,-2.7951,-2.7965,-2.7982,-2.8012,-2.8045,-2.8091,-2.8129,-2.8151,-2.8178,-2.8217,-2.827,-2.8253,-2.8274,-2.8271,-2.8303,-2.837,-2.828,-2.8281,-2.8295,-2.845,-2.8464,-2.8477,-2.8362,-2.8364,-2.8365,-2.8448,0,-2.7995,-2.8077,-2.8077,-2.8153,-2.8191,-2.8176,-2.8216,-2.8239,-2.8248,-2.8281,-2.829,-2.8328,-2.8302,-2.8314,-2.8346,-2.8356,-2.8401,-2.835,-2.8396,-2.8398,-2.8389,-2.8491,-2.8506,-2.8583,-2.8458,-2.846,-2.8462,0,-2.81,-2.8131,-2.8211,-2.8236,-2.8252,-2.8289,-2.8323,-2.8356,-2.8381,-2.8385,-2.8408,-2.8401,-2.8448,-2.8412,-2.8475,-2.844,-2.846,-2.8468,-2.847,-2.8474,-2.8433,-2.8497,-2.8607,-2.8618,-2.8478,-2.8477,-2.8476,0,-2.8166,-2.8228,-2.8283,-2.8298,-2.8329,-2.8355,-2.8369,-2.8393,-2.8415,-2.8445,-2.846,-2.8495,-2.8514,-2.8541,-2.8543,-2.8516,-2.8607,-2.8571,-2.8611,-2.8611,-2.8629,-2.8628,-2.8744,-2.8643,-2.8643,-2.8643,-2.8643,0,-2.8256,-2.8305,-2.8313,-2.8347,-2.8401,-2.8401,-2.8455,-2.8467,-2.8488,-2.8523,-2.8512,-2.8545,-2.8547,-2.8581,-2.8583,-2.8635,-2.8644,-2.8647,-2.8647,-2.8648,-2.8647,-2.866,-2.8654,-2.8646,-2.8645,-2.8645,-2.8644,0,-2.8338,-2.8346,-2.8405,-2.843,-2.8437,-2.8476,-2.8497,-2.8529,-2.8536,-2.8581,-2.8592,-2.8603,-2.8643,-2.8648,-2.8694,-2.8695,-2.8758,-2.8752,-2.8749,-2.8748,-2.8787,-2.8783,-2.8914,-2.893,-2.882,-2.8821,-2.8822,0,-2.8394,-2.8432,-2.8461,-2.8484,-2.85,-2.8537,-2.8561,-2.8562,-2.8587,-2.8619,-2.8647,-2.8685,-2.8716,-2.878,-2.8792,-2.8827,-2.8821,-2.8865,-2.8826,-2.8826,-2.8821,-2.8818,-2.8822,-2.8872,-2.8873,-2.8874,-2.8875,0,-2.8494,-2.8496,-2.853,-2.8566,-2.8594,-2.8622,-2.8648,-2.8668,-2.8673,-2.8701,-2.8741,-2.8765,-2.8812,-2.885,-2.8885,-2.8899,-2.8888,-2.8887,-2.8898,-2.8899,-2.8895,-2.8897,-2.8769,-2.8884,-2.8883,-2.8882,-2.8882,-2.8882,-2.8564,-2.8596,-2.8622,-2.866,-2.8681,-2.8706,-2.8737,-2.8749,-2.8783,-2.8822,-2.882,-2.8865,-2.8889,-2.8935,-2.8951,-2.8985,-2.8971,-2.8987,-2.899,-2.8994,-2.8998,-2.8891,-2.8992,-2.8991,-2.8991,-2.8991,-2.8991,0,-2.8662,-2.8678,-2.8713,-2.8751,-2.8781,-2.8769,-2.8797,-2.8823,-2.8863,-2.8887,-2.8918,-2.8964,-2.9001,-2.9016,-2.9052,-2.9077,-2.9072,-2.9086,-2.9084,-2.9087,-2.9009,-2.8996,-2.9089,-2.9089,-2.9089,-2.9089,-2.9089,-2.9089,-2.8716,-2.877,-2.8776,-2.8839,-2.8855,-2.8899,-2.8916,-2.8939,-2.8958,-2.901,-2.9041,-2.9051,-2.9072,-2.9109,-2.9142,-2.9146,-2.9159,-2.9175,-2.9176,-2.9102,-2.9092,-2.9083,-2.907,-2.9178,-2.9178,-2.9251,-2.9251,-2.9252]}]]